TimeEDT,TemperatureF,Dew PointF,Humidity,Sea Level PressureIn,VisibilityMPH,Wind Direction,Wind SpeedMPH,Gust SpeedMPH,PrecipitationIn,Events,Conditions,WindDirDegrees,DateUTC
12:56 AM,72.0,71.1,97,29.75,6.0,SW,5.8,-,N/A,,Overcast,220,2013-09-03 04:56:00
1:56 AM,72.0,71.1,97,29.74,6.0,SSW,4.6,-,N/A,,Overcast,200,2013-09-03 05:56:00
2:05 AM,73.4,71.6,94,29.73,7.0,SSW,6.9,-,N/A,,Overcast,200,2013-09-03 06:05:00
2:56 AM,73.0,71.1,93,29.72,7.0,SW,8.1,-,N/A,,Overcast,220,2013-09-03 06:56:00
3:51 AM,71.6,69.8,94,29.70,6.0,SW,9.2,-,N/A,,Overcast,230,2013-09-03 07:51:00
3:56 AM,72.0,70.0,93,29.70,6.0,SW,6.9,-,N/A,,Overcast,220,2013-09-03 07:56:00
4:44 AM,71.6,69.8,94,29.70,1.8,SW,10.4,-,N/A,,Overcast,220,2013-09-03 08:44:00
4:56 AM,71.1,70.0,96,29.72,0.8,WSW,11.5,-,N/A,,Mist,240,2013-09-03 08:56:00
5:10 AM,71.6,69.8,94,29.71,1.2,SW,10.4,-,N/A,,Overcast,230,2013-09-03 09:10:00
5:35 AM,71.6,69.8,94,29.72,0.5,WSW,6.9,-,N/A,Fog,Fog,240,2013-09-03 09:35:00
5:56 AM,71.1,70.0,96,29.73,0.8,SW,9.2,-,N/A,,Mist,230,2013-09-03 09:56:00
6:56 AM,71.1,70.0,96,29.75,1.2,West,4.6,-,N/A,,Overcast,260,2013-09-03 10:56:00
7:52 AM,71.6,71.6,100,29.77,3.0,WSW,4.6,-,N/A,,Overcast,240,2013-09-03 11:52:00
7:56 AM,71.1,70.0,96,29.78,3.0,WSW,6.9,-,N/A,,Overcast,240,2013-09-03 11:56:00
8:37 AM,73.4,71.6,94,29.78,5.0,WSW,5.8,-,N/A,,Overcast,250,2013-09-03 12:37:00
8:56 AM,73.9,71.1,91,29.79,5.0,SW,6.9,-,N/A,,Overcast,230,2013-09-03 12:56:00
9:56 AM,75.9,71.1,85,29.79,7.0,SSW,3.5,-,N/A,,Mostly Cloudy,200,2013-09-03 13:56:00
10:54 AM,77.0,71.6,83,29.78,8.0,South,5.8,-,N/A,,Partly Cloudy,190,2013-09-03 14:54:00
10:56 AM,78.1,72.0,81,29.79,7.0,SSW,5.8,-,N/A,,Scattered Clouds,200,2013-09-03 14:56:00
11:56 AM,75.0,70.0,84,29.77,9.0,SSW,10.4,-,N/A,,Scattered Clouds,200,2013-09-03 15:56:00
12:03 PM,75.2,71.6,89,29.77,9.0,SSW,10.4,-,N/A,,Mostly Cloudy,210,2013-09-03 16:03:00
12:56 PM,75.9,71.1,85,29.77,10.0,South,9.2,-,N/A,,Scattered Clouds,190,2013-09-03 16:56:00
1:24 PM,75.2,71.6,89,29.77,10.0,SSW,9.2,-,N/A,,Mostly Cloudy,200,2013-09-03 17:24:00
1:56 PM,75.9,71.1,85,29.76,10.0,South,11.5,-,N/A,,Overcast,190,2013-09-03 17:56:00
2:18 PM,77.0,71.6,83,29.74,10.0,South,10.4,18.4,N/A,,Partly Cloudy,190,2013-09-03 18:18:00
2:25 PM,75.2,71.6,89,29.74,8.0,South,13.8,-,N/A,,Partly Cloudy,190,2013-09-03 18:25:00
2:47 PM,73.4,71.6,94,29.73,5.0,SSW,11.5,-,N/A,,Mostly Cloudy,200,2013-09-03 18:47:00
2:56 PM,73.0,71.1,93,29.73,2.0,South,9.2,18.4,N/A,,Overcast,190,2013-09-03 18:56:00
3:27 PM,73.4,71.6,94,29.74,1.0,SSW,10.4,-,N/A,,Overcast,210,2013-09-03 19:27:00
3:56 PM,73.0,72.0,96,29.75,1.0,SSW,6.9,17.3,N/A,,Overcast,210,2013-09-03 19:56:00
4:56 PM,69.1,66.0,90,29.78,1.0,North,9.2,27.6,0.28,Rain-Thunderstorm,Heavy Thunderstorms and Rain,360,2013-09-03 20:56:00
4:58 PM,69.8,66.2,88,29.78,0.5,NW,11.5,17.3,0.05,Fog-Rain-Thunderstorm,Heavy Thunderstorms and Rain,320,2013-09-03 20:58:00
5:09 PM,68.0,64.4,88,29.75,3.0,North,5.8,-,0.22,Rain-Thunderstorm,Heavy Thunderstorms and Rain,10,2013-09-03 21:09:00
5:17 PM,68.0,64.4,88,29.75,3.0,Calm,Calm,-,0.23,Rain-Thunderstorm,Rain,0,2013-09-03 21:17:00
5:56 PM,66.9,64.9,93,29.75,0.2,NW,3.5,-,1.18,Fog-Rain-Thunderstorm,Heavy Thunderstorms and Rain,320,2013-09-03 21:56:00
6:05 PM,66.2,66.2,100,29.77,5.0,Calm,Calm,-,0.02,Rain-Thunderstorm,Light Thunderstorms and Rain,0,2013-09-03 22:05:00
6:21 PM,66.2,66.2,100,29.77,5.0,Calm,Calm,-,0.02,Rain-Thunderstorm,Light Rain,0,2013-09-03 22:21:00
6:44 PM,68.0,66.2,94,29.76,5.0,Variable,3.5,-,0.03,Rain-Thunderstorm,Light Rain,0,2013-09-03 22:44:00
6:56 PM,68.0,66.0,93,29.75,5.0,NE,4.6,-,0.11,Rain-Thunderstorm,Rain,40,2013-09-03 22:56:00
6:59 PM,68.0,66.2,94,29.75,1.8,NE,4.6,-,0.02,Rain-Thunderstorm,Heavy Rain,50,2013-09-03 22:59:00
7:12 PM,66.2,66.2,100,29.75,3.0,Calm,Calm,-,0.07,Rain-Thunderstorm,Light Rain,0,2013-09-03 23:12:00
7:17 PM,68.0,66.2,94,29.75,8.0,Calm,Calm,-,0.07,Rain-Thunderstorm,Light Rain,0,2013-09-03 23:17:00
7:44 PM,68.0,66.2,94,29.76,10.0,Calm,Calm,-,0.07,Thunderstorm,Overcast,0,2013-09-03 23:44:00
7:56 PM,68.0,66.9,96,29.76,10.0,SE,3.5,-,0.07,Thunderstorm,Overcast,140,2013-09-03 23:56:00
8:21 PM,68.0,66.2,94,29.78,1.8,Calm,Calm,-,0.09,Rain-Thunderstorm,Rain,0,2013-09-04 00:21:00
8:30 PM,68.0,66.2,94,29.78,3.0,Calm,Calm,-,0.10,Rain-Thunderstorm,Light Rain,0,2013-09-04 00:30:00
8:51 PM,68.0,66.2,94,29.79,4.0,Calm,Calm,-,0.14,Rain,Light Rain,0,2013-09-04 00:51:00
8:56 PM,68.0,66.9,96,29.80,3.0,Calm,Calm,-,0.14,Rain,Light Rain,0,2013-09-04 00:56:00
9:13 PM,69.8,66.2,88,29.80,10.0,WSW,3.5,-,0.00,Rain,Light Rain,250,2013-09-04 01:13:00
9:56 PM,69.1,68.0,96,29.81,6.0,South,3.5,-,0.00,,Overcast,190,2013-09-04 01:56:00
10:56 PM,70.0,68.0,93,29.81,10.0,SW,3.5,-,N/A,,Overcast,220,2013-09-04 02:56:00
11:44 PM,69.8,66.2,88,29.80,8.0,West,4.6,-,N/A,,Scattered Clouds,260,2013-09-04 03:44:00
11:56 PM,68.0,66.9,96,29.80,8.0,WSW,4.6,-,N/A,,Scattered Clouds,250,2013-09-04 03:56:00